Home > Time Zones > World Clock > Weather > India > Betul > Past weeks

Flag Weather past 2 weeks in Betul, Madhya Pradesh, India

Now
68 °F

Haze.


Feels Like: 68 °F
Forecast: 57 / 84 °F
Wind: No wind

Location: Nagpur Sonegaon

Current Time: Nov 23, 2014 at 9:41:42 PM

Latest Report: Nov 23, 2014 at 9:10 PM


Visibility: 2 mi

Pressure: 29.98 "Hg

Humidity: 60%

Dew point: 54 °F

Location of BetulLocation

Historic Weather in Betul — Graph

°F

Betul temperature yesterday

Maximum temperature yesterday: 88 °F (at 1:40 PM)
Minimum temperature yesterday: 55 °F (at 6:40 AM)
Average temperature yesterday: 71 °F

Past Weeks' High & Low Weather Summary

 TemperatureHumidityPressure
High93 °F (Nov 15, 12:40 PM)100% (Nov 11, 10:10 AM)30.12 "Hg (Nov 11, 10:10 AM)
Low55 °F (Nov 19, 2:10 AM)24% (Nov 18, 2:10 PM)29.86 "Hg (Nov 22, 2:40 PM)
Average77 °F60%29.98 "Hg
* Reported Nov 8 7:40 PM — Nov 23 8:10 PM, Betul, Weather by CustomWeather, © 2014

Note: Actual official high and low records may vary slightly from our data, if they occured in-between our weather recording intervals... More about our weather records

Advertising

Betul weather history for previous 24 hours

 ConditionsComfort  
Time TempWeatherWind HumidityBarometerVisibility
8:10 PM
Nov 23
70 °FHaze.No wind60%29.95 "Hg2 mi
7:40 PM72 °FHaze.No wind61%29.95 "Hg2 mi
7:10 PM72 °FHaze.No wind65%29.95 "Hg2 mi
6:40 PM73 °FHaze.No wind69%29.92 "Hg2 mi
6:10 PM77 °FHaze.No wind69%29.92 "Hg2 mi
5:40 PM81 °FHaze.2 mph66%29.92 "Hg3 mi
5:10 PM82 °FHaze.No wind66%29.92 "Hg3 mi
4:40 PM84 °FHaze.5 mph66%29.89 "Hg3 mi
4:10 PM86 °FHaze.6 mph66%29.89 "Hg3 mi
3:10 PM88 °FHaze.6 mph66%29.89 "Hg3 mi
2:40 PM86 °FHaze.5 mph70%29.89 "Hg3 mi
1:40 PM86 °FHaze.6 mph33%29.92 "Hg2 mi
1:10 PM86 °FHaze.7 mph66%29.95 "Hg2 mi
12:40 PM84 °FHaze.3 mph70%29.95 "Hg2 mi
12:10 PM84 °FHaze.6 mph66%29.98 "Hg2 mi
11:40 AM82 °FHaze.2 mph66%30.01 "Hg2 mi
11:10 AM81 °FHaze.3 mph66%30.01 "Hg2 mi
10:40 AM79 °FHaze.3 mph65%30.04 "Hg2 mi
10:10 AM77 °FHaze.3 mph65%30.04 "Hg2 mi
9:40 AM73 °FHaze.2 mph65%30.04 "Hg2 mi
8:40 AM70 °FHaze.No wind60%30.04 "Hg2 mi
8:10 AM66 °FHaze.No wind60%30.01 "Hg2 mi
7:40 AM63 °FHaze.No wind56%30.01 "Hg2 mi
6:40 AM59 °FHaze.No wind72%29.98 "Hg2 mi
6:10 AM57 °FHaze.No wind77%29.95 "Hg2 mi
2:10 AM59 °FHaze.No wind72%29.95 "Hg2 mi
1:10 AM63 °FHaze.3 mph68%29.98 "Hg2 mi
12:10 AM63 °FHaze.No wind59%29.98 "Hg2 mi
11:40 PM
Nov 22
64 °FHaze.No wind56%29.98 "Hg2 mi
10:40 PM64 °FHaze.No wind56%29.98 "Hg2 mi
10:10 PM64 °FHaze.No wind64%29.98 "Hg2 mi
9:40 PM66 °FHaze.No wind56%29.98 "Hg2 mi
9:10 PM68 °FHaze.No wind49%29.98 "Hg2 mi
Weather by CustomWeather, © 2014

See weather overviewHow to use our weather pages